Weather History for Burlington, NC

Change the Weather History Date:

Saturday, December 8, 2012

  Actual Average Record
Temperature  
Mean Temperature 56 °F -  
Max Temperature 66 °F 54 °F 76 °F (1980)
Min Temperature 46 °F 31 °F 15 °F (2010)
Degree Days  
Heating Degree Days 9    
Growing Degree Days 6 (Base 50)    
Moisture  
Dew Point 49 °F    
Average Humidity 90    
Maximum Humidity 100    
Minimum Humidity 59    
Precipitation  
Precipitation 0.00 in - - ()
Sea Level Pressure  
Sea Level Pressure 30.00 in    
Wind  
Wind Speed 4 mph (SW)    
Max Wind Speed 9 mph    
Max Gust Speed -    
Visibility 5 miles    
Events      
Averages and records for this station are not official NWS values.
T = Trace of Precipitation, MM = Missing Value Source: NWS Daily Summary

Daily Weather History Graph

Daily Weather History Graph

Search for Another Location

Airport:

Trip Planner

Search our weather history database for the weather conditions in past years. The results will help you decide how hot, cold, wet, or windy it might be!

Date:

Astronomy

Dec. 08, 2012 Rise Set
Actual Time 7:16 AM EST 5:03 PM EST
Civil Twilight 6:48 AM EST 5:31 PM EST
Nautical Twilight 6:16 AM EST 6:03 PM EST
Astronomical Twilight 5:44 AM EST 6:35 PM EST
Moon 1:47 AM EST (12/8) 1:25 PM EST (12/8)
Length of Visible Light 10h 43m
Length of Day
9h 47m
Waning Crescent, 28% of the Moon is Illuminated
Dec 8
Waning Crescent
Dec 13
New
Dec 20
First Quarter
Dec 28
Full
Jan 4
Last Quarter

Hourly Weather History & Observations

Time (EST) Temp. Dew Point Humidity Pressure Visibility Wind Dir Wind Speed Gust Speed Precip Events Conditions
12:54 AM 48.9 °F 48.0 °F 97% 29.99 in 5.0 mi West 3.5 mph - N/A   Overcast
1:43 AM 48.2 °F 48.2 °F 100% 29.99 in 2.0 mi Calm Calm - N/A   Overcast
1:54 AM 48.9 °F 48.0 °F 97% 29.99 in 1.8 mi Calm Calm - N/A   Overcast
2:03 AM 48.2 °F 48.2 °F 100% 29.99 in 1.5 mi Calm Calm - N/A   Overcast
2:46 AM 48.2 °F 48.2 °F 100% 29.98 in 0.8 mi Calm Calm - N/A   Overcast
2:54 AM 48.9 °F 48.0 °F 97% 29.99 in 0.8 mi Calm Calm - N/A   Mist
3:24 AM 48.2 °F 48.2 °F 100% 29.97 in 1.2 mi SSW 4.6 mph - N/A   Overcast
3:54 AM 50.0 °F 48.9 °F 96% 29.97 in 2.0 mi WSW 5.8 mph - N/A   Overcast
4:11 AM 50.0 °F 48.2 °F 94% 29.97 in 3.0 mi WSW 5.8 mph - N/A   Overcast
4:37 AM 50.0 °F 48.2 °F 94% 29.96 in 2.5 mi SW 3.5 mph - N/A   Overcast
4:54 AM 50.0 °F 48.9 °F 96% 29.96 in 5.0 mi SW 9.2 mph - N/A   Overcast
5:23 AM 48.2 °F 48.2 °F 100% 29.97 in 1.8 mi WSW 6.9 mph - N/A   Overcast
5:41 AM 48.2 °F 48.2 °F 100% 29.98 in 2.0 mi WSW 6.9 mph - N/A   Overcast
5:54 AM 48.9 °F 48.9 °F 100% 29.98 in 2.5 mi SW 6.9 mph - N/A   Overcast
6:03 AM 48.2 °F 48.2 °F 100% 29.98 in 5.0 mi SW 8.1 mph - N/A   Overcast
6:54 AM 48.9 °F 48.0 °F 97% 30.00 in 6.0 mi WSW 9.2 mph - N/A   Overcast
7:54 AM 48.9 °F 48.0 °F 97% 30.01 in 4.0 mi WSW 6.9 mph - N/A   Overcast
8:54 AM 50.0 °F 48.0 °F 93% 30.03 in 4.0 mi WSW 8.1 mph - N/A   Overcast
9:27 AM 50.0 °F 48.2 °F 94% 30.03 in 4.0 mi SW 5.8 mph - N/A   Overcast
9:54 AM 51.1 °F 48.9 °F 92% 30.04 in 5.0 mi WSW 6.9 mph - N/A   Overcast
10:54 AM 55.0 °F 48.9 °F 80% 30.02 in 6.0 mi WSW 8.1 mph - N/A   Haze
11:01 AM 55.4 °F 50.0 °F 82% 30.02 in 7.0 mi WSW 9.2 mph - N/A   Scattered Clouds
11:54 AM 60.1 °F 50.0 °F 69% 30.00 in 10.0 mi WSW 3.5 mph - N/A   Clear
12:54 PM 62.1 °F 51.1 °F 67% 29.97 in 10.0 mi WSW 6.9 mph - N/A   Clear
1:54 PM 64.9 °F 52.0 °F 63% 29.96 in 10.0 mi WSW 4.6 mph - N/A   Clear
2:54 PM 66.0 °F 52.0 °F 60% 29.96 in 10.0 mi West 3.5 mph - N/A   Clear
3:54 PM 66.9 °F 52.0 °F 59% 29.97 in 10.0 mi SSW 4.6 mph - N/A   Clear
4:54 PM 63.0 °F 52.0 °F 67% 29.98 in 10.0 mi South 4.6 mph - N/A   Clear
5:54 PM 60.1 °F 51.1 °F 72% 29.98 in 10.0 mi Calm Calm - N/A   Clear
6:54 PM 54.0 °F 50.0 °F 86% 30.01 in 9.0 mi Calm Calm - N/A   Clear
7:54 PM 55.0 °F 51.1 °F 86% 30.02 in 10.0 mi South 4.6 mph - N/A   Clear
8:54 PM 52.0 °F 48.9 °F 89% 30.02 in 8.0 mi Calm Calm - N/A   Clear
9:54 PM 50.0 °F 48.0 °F 93% 30.03 in 5.0 mi Calm Calm - N/A   Clear
10:45 PM 50.0 °F 48.2 °F 94% 30.04 in 1.8 mi Calm Calm - N/A   Clear
10:52 PM 50.0 °F 48.2 °F 94% 30.04 in 3.0 mi Calm Calm - N/A   Clear
10:53 PM 50.0 °F 48.0 °F 93% 30.04 in 3.0 mi Calm Calm - N/A   Clear
11:00 PM 48.2 °F 48.2 °F 100% 30.04 in 1.8 mi Calm Calm - N/A   Clear
11:31 PM 46.4 °F 46.4 °F 100% 30.05 in 3.0 mi Calm Calm - N/A   Clear
11:54 PM 50.0 °F 48.0 °F 93% 30.04 in 5.0 mi South 3.5 mph - N/A   Clear